Hourly Data Report for October 14, 2013

All times are specified in Local Standard Time (LST). Add 1 hour to adjust for Daylight Saving Time where and when it is observed.

FREDERICTON
NEW BRUNSWICK

45°52'08.000" N
66°32'14.000" W
20.70 m
8101505
71700
YFC

Download Data

Hourly Data (October 2013)
Hourly Data Report for October 14, 2013
Temp Definition
°C
Dew Point Temp Definition
°C
Rel Hum Definition
%
Wind Dir Definition
10's deg

Wind Spd Definition
km/h
Visibility Definition
km
Stn Press Definition
kPa
Hmdx Definition


Wind Chill Definition


Weather Definition


TIME
00:00 Legend Double Dagger 4.2 3.9 98 19 8 LegendMM 102.52     LegendNANA
01:00 Legend Double Dagger 3.6 3.3 98 20 4 16.1 102.52     LegendNANA
02:00 Legend Double Dagger 2.8 2.7 99 20 8 2.8 102.49     LegendNANA
03:00 Legend Double Dagger 1.3 1.3 100 21 5 LegendMM 102.46     LegendNANA
04:00 Legend Double Dagger 1.8 1.8 100 21 8 1.2 102.45     LegendNANA
05:00 Legend Double Dagger 0.7 0.7 100 LegendMM 4 11.3 102.47     LegendNANA
06:00 Legend Double Dagger -0.4 LegendMM LegendMM   0 0.4 102.46     LegendNANA
07:00 Legend Double Dagger -0.3 LegendMM LegendMM LegendMM 4 LegendMM 102.45   -2 LegendNANA
08:00 Legend Double Dagger 2.2 2.2 100   0 6.4 102.46     LegendNANA
09:00 Legend Double Dagger 5.0 4.9 99 19 9 16.1 102.44     LegendNANA
10:00 Legend Double Dagger 7.5 7.1 97 21 9 16.1 102.41     LegendNANA
11:00 Legend Double Dagger 9.5 7.6 88 23 13 16.1 102.37     LegendNANA
12:00 Legend Double Dagger 10.8 7.8 81 23 15 16.1 102.31     LegendNANA
13:00 Legend Double Dagger 13.0 8.1 72 27 15 16.1 102.23     LegendNANA
14:00 Legend Double Dagger 14.2 8.5 68 26 9 16.1 102.16     LegendNANA
15:00 Legend Double Dagger 15.0 8.5 65 24 9 16.1 102.08     LegendNANA
16:00 Legend Double Dagger 15.1 9.1 67 28 8 16.1 102.03     LegendNANA
17:00 Legend Double Dagger 13.9 9.9 77 32 5 16.1 102.04     LegendNANA
18:00 Legend Double Dagger 12.6 11.0 90   0 16.1 102.04     LegendNANA
19:00 Legend Double Dagger 11.6 10.8 95 21 4 16.1 102.06     LegendNANA
20:00 Legend Double Dagger 12.0 10.4 90 19 11 16.1 102.07     LegendNANA
21:00 Legend Double Dagger 11.7 10.5 92 19 5 16.1 102.12     LegendNANA
22:00 Legend Double Dagger 11.6 10.4 92 16 5 16.1 102.10     LegendNANA
23:00 Legend Double Dagger 11.4 10.1 92 18 9 16.1 102.07     LegendNANA

Notes on Data Quality.

Legend

  • E = Estimated
  • M = Missing
  • NA = Not Available
  • ‡ = Partner data that is not subject to review by the National Climate Archives
Date modified: